[[{"header":{"parameterUnit":"m.s-1","parameterCategory":1,"la1":30.2991,"la2":30.254,"lo1":-89.0895,"lo2":-89.0444,"dy":0.0017,"dx":0.0017,"nx":28,"ny":28,"refTime":"2023-11-21T09:00:00:Z","depth":0,"parameterNumber":2,"parameterNumberName":"U-component_of_WINDS"},"data":[0,0,0,0,0,0,0,0,0,0,0,0,0,0,0,0,0,0,0,0,0,0,0,0,0,0,0,0,0,0,0,0,0,0,0,0,0,0,0,0,0,0,0,0,0,0,0,0,0,0,0,0,0,0,0,0,0,0,3.3893,3.3894,0,3.3949,3.395,3.395,3.3918,3.3916,3.3915,3.3913,3.3968,3.3971,3.3974,0,0,0,0,0,0,0,0,0,0,0,0,0,3.3758,3.3761,3.3893,3.3894,3.3895,3.3949,3.395,3.3951,3.3918,3.3916,3.3914,3.3912,3.3967,3.3971,3.3974,0,0,0,0,0,0,0,0,0,0,0,0,0,3.3816,3.3761,3.3893,3.3885,3.3885,3.3949,3.395,3.3951,3.3918,3.3916,3.3914,3.3911,3.3966,3.397,3.3975,3.4049,0,0,3.3988,3.399,0,0,0,0,0,0,0,0,3.3812,3.3821,3.3886,3.3886,3.3886,3.3924,3.3922,3.3984,3.3919,3.3906,3.3913,3.391,3.3955,3.396,3.3976,3.4052,3.4054,3.3988,3.3991,3.3993,3.3994,0,0,0,0,0,0,0,3.3808,3.3818,3.3915,3.3887,3.3887,3.3878,3.3884,3.3934,3.3943,3.3907,3.3904,3.3912,3.3955,3.3972,3.3977,3.4055,3.3988,3.3992,3.3995,3.3997,3.4196,3.4199,0,0,0,0,0,0,3.3805,3.3815,3.3914,3.3917,3.3843,3.3883,3.3889,3.3914,3.3942,3.3944,3.3913,3.391,3.3965,3.3972,3.3979,3.4069,3.3993,3.3997,3.4,3.4194,3.4197,3.42,0,0,0,0,0,0,3.3802,3.3814,3.3911,3.3865,3.3877,3.3888,3.3916,3.3916,3.3933,3.3948,3.3949,3.3929,3.3964,3.3973,3.4032,3.407,3.3999,3.4003,3.419,3.4195,3.4198,3.4249,0,0,0,0,0,0,3.3799,3.3813,3.3842,3.3866,3.388,3.3964,3.3918,3.3919,3.3941,3.3937,3.3963,3.3965,3.3963,3.4026,3.4037,3.4075,3.4006,3.4187,3.4192,3.4197,3.4244,3.4254,3.4263,0,0,0,0,0,3.3794,3.3853,3.3843,3.3855,3.3916,3.3966,3.3974,3.3971,3.3944,3.3973,3.3983,3.3964,3.4065,3.4032,3.4044,3.4084,3.4185,3.4191,3.4197,3.4239,3.4252,3.4263,0,0,0,0,0,0,3.3831,3.3856,3.3846,3.3914,3.3939,3.3961,3.3997,3.3984,3.4016,3.401,3.4005,3.4011,3.4074,3.4085,3.4049,3.4159,3.412,3.4129,3.4149,3.4161,3.417,3.4166,3.401,0,0,0,0,0,3.3848,3.3888,3.3907,3.3966,3.3979,3.3986,3.4008,3.4004,3.4028,3.4038,3.4052,3.4076,3.4113,3.4138,3.4173,3.4246,3.4251,3.4279,3.4289,3.4297,3.4304,3.4344,3.4357,3.4219,3.4219,3.4219,0,0,3.3882,3.39,3.3925,3.3974,3.3992,3.4033,3.3994,3.4039,3.407,3.4045,3.4102,3.4114,3.414,3.4208,3.4238,3.4219,3.4344,3.4304,3.431,3.4313,3.4352,3.4365,3.4377,3.4223,3.4223,3.4222,0,0,3.3964,3.3982,3.4034,3.4054,3.4083,3.4088,3.41,3.4125,3.4132,3.419,3.4173,3.4209,3.4273,3.4293,3.4312,3.4405,3.4389,3.4417,3.4466,3.4506,3.4517,3.4526,3.456,3.4572,3.4424,3.4424,3.4425,0,3.4003,3.4064,3.4062,3.4109,3.4131,3.4112,3.4165,3.4184,3.4222,3.4238,3.4217,3.4298,3.4314,3.4387,3.441,3.4426,3.444,3.4413,3.4516,3.4525,3.4534,3.4566,3.4579,3.4428,3.4427,3.4427,3.4427,0,3.411,3.4154,3.4192,3.4231,3.4258,3.4307,3.4312,3.434,3.4334,3.4341,3.4402,3.4421,3.4461,3.4478,3.4472,3.455,3.4537,3.4516,3.4477,3.455,3.4581,3.4593,3.4432,3.4431,3.443,3.4429,0,0,3.4216,3.4256,3.427,3.4288,3.432,3.4353,3.4402,3.4442,3.4466,3.4494,3.4535,3.4591,3.4572,3.4593,3.459,3.4625,3.4699,3.4599,3.46,3.4617,3.4787,3.4802,3.4817,3.4689,3.4691,3.4693,3.4785,0,3.4301,3.4388,3.4388,3.4468,3.4508,3.4492,3.4535,3.4559,3.4568,3.4604,3.4613,3.4653,3.4625,3.4638,3.4672,3.4683,3.4733,3.4676,3.4727,3.4729,3.4721,3.4832,3.4848,3.4933,3.4796,3.4798,3.48,0,3.4412,3.4445,3.4529,3.4557,3.4574,3.4612,3.465,3.4684,3.4712,3.4716,3.4741,3.4733,3.4783,3.4744,3.4814,3.4775,3.4797,3.4805,3.4809,3.4813,3.4768,3.4839,3.496,3.4973,3.4818,3.4817,3.4815,0,3.4481,3.4547,3.4606,3.4622,3.4656,3.4683,3.4699,3.4724,3.4749,3.4781,3.4797,3.4835,3.4856,3.4885,3.4888,3.4859,3.4958,3.4919,3.4963,3.4963,3.4984,3.4982,3.511,3.4998,3.4998,3.4998,3.4998,0,3.4576,3.4628,3.4638,3.4674,3.4733,3.4733,3.4791,3.4803,3.4827,3.4865,3.4853,3.489,3.4892,3.4929,3.4932,3.499,3.4999,3.5003,3.5003,3.5004,3.5004,3.5017,3.5012,3.5001,3.5001,3.5,3.4999,0,3.4662,3.4671,3.4735,3.4762,3.477,3.4812,3.4836,3.4871,3.4879,3.4928,3.494,3.4953,3.4997,3.5003,3.5054,3.5056,3.5125,3.5119,3.5116,3.5115,3.5159,3.5155,3.5299,3.5319,3.5195,3.5196,3.5197,0,3.4722,3.4762,3.4795,3.482,3.4837,3.4878,3.4904,3.4906,3.4933,3.4969,3.5,3.5043,3.5077,3.5148,3.5162,3.5202,3.5196,3.5244,3.5202,3.5202,3.5197,3.5195,3.5199,3.5252,3.5253,3.5255,3.5255,0,3.4827,3.483,3.4867,3.4907,3.4938,3.497,3.4999,3.502,3.5027,3.5058,3.5103,3.513,3.5183,3.5226,3.5266,3.5281,3.527,3.5269,3.5281,3.5282,3.5279,3.5282,3.5138,3.5265,3.5264,3.5264,3.5263,3.5263,3.4902,3.4937,3.4966,3.5009,3.5032,3.506,3.5095,3.5109,3.5147,3.5191,3.519,3.524,3.5268,3.532,3.5339,3.5378,3.5362,3.538,3.5384,3.5389,3.5393,3.5274,3.5385,3.5385,3.5385,3.5385,3.5384,0,3.5006,3.5025,3.5064,3.5107,3.5141,3.5128,3.5161,3.519,3.5234,3.5262,3.5297,3.535,3.5392,3.5411,3.5452,3.548,3.5476,3.5491,3.5489,3.5493,3.5405,3.539,3.5494,3.5494,3.5494,3.5494,3.5494,3.5494,3.5065,3.5124,3.5131,3.5202,3.522,3.527,3.529,3.5316,3.5338,3.5398,3.5434,3.5446,3.5471,3.5514,3.5553,3.5557,3.5573,3.559,3.5592,3.551,3.5498,3.5488,3.5474,3.5594,3.5594,3.5677,3.5677,3.5678]},{"header":{"parameterUnit":"m.s-1","parameterCategory":1,"la1":30.2991,"la2":30.254,"lo1":-89.0895,"lo2":-89.0444,"dy":0.0017,"dx":0.0017,"nx":28,"ny":28,"refTime":"2023-11-21T09:00:00:Z","depth":0,"parameterNumber":3,"parameterNumberName":"V-component_of_WINDS"},"data":[0,0,0,0,0,0,0,0,0,0,0,0,0,0,0,0,0,0,0,0,0,0,0,0,0,0,0,0,0,0,0,0,0,0,0,0,0,0,0,0,0,0,0,0,0,0,0,0,0,0,0,0,0,0,0,0,0,0,-5.2251,-5.2252,0,-5.2328,-5.2328,-5.2329,-5.2272,-5.227,-5.2267,-5.2265,-5.2341,-5.2345,-5.2349,0,0,0,0,0,0,0,0,0,0,0,0,0,-5.2053,-5.2057,-5.2251,-5.2252,-5.2253,-5.2327,-5.2328,-5.2329,-5.2273,-5.227,-5.2267,-5.2264,-5.2339,-5.2344,-5.235,0,0,0,0,0,0,0,0,0,0,0,0,0,-5.2136,-5.2059,-5.225,-5.2233,-5.2233,-5.2327,-5.2328,-5.233,-5.2274,-5.227,-5.2266,-5.2263,-5.2338,-5.2344,-5.235,-5.2465,0,0,-5.237,-5.2373,0,0,0,0,0,0,0,0,-5.2131,-5.2143,-5.2235,-5.2235,-5.2234,-5.2287,-5.2287,-5.2375,-5.2274,-5.2258,-5.2265,-5.2261,-5.2326,-5.2333,-5.2355,-5.2468,-5.2472,-5.2371,-5.2375,-5.2378,-5.2379,0,0,0,0,0,0,0,-5.2125,-5.2139,-5.2281,-5.2236,-5.2236,-5.2221,-5.2229,-5.2303,-5.2312,-5.2259,-5.2255,-5.2265,-5.2325,-5.2349,-5.2357,-5.2473,-5.2371,-5.2376,-5.238,-5.2383,-5.2686,-5.269,0,0,0,0,0,0,-5.2122,-5.2135,-5.2278,-5.2283,-5.2172,-5.2228,-5.2236,-5.2273,-5.2311,-5.2313,-5.2268,-5.2262,-5.234,-5.2349,-5.2359,-5.2497,-5.2377,-5.2384,-5.2387,-5.2682,-5.2687,-5.2691,0,0,0,0,0,0,-5.2118,-5.2135,-5.2275,-5.2208,-5.2225,-5.2235,-5.2277,-5.2277,-5.2301,-5.2318,-5.2319,-5.2292,-5.2337,-5.235,-5.244,-5.2499,-5.2386,-5.2392,-5.2677,-5.2683,-5.2689,-5.2773,0,0,0,0,0,0,-5.2112,-5.2134,-5.2178,-5.221,-5.2229,-5.2355,-5.2281,-5.2281,-5.2313,-5.2306,-5.234,-5.2342,-5.2335,-5.243,-5.2446,-5.2506,-5.2397,-5.2671,-5.268,-5.2687,-5.2765,-5.2781,-5.2795,0,0,0,0,0,-5.2105,-5.2197,-5.218,-5.2198,-5.2284,-5.2359,-5.237,-5.2361,-5.2318,-5.2362,-5.2373,-5.2341,-5.249,-5.244,-5.2457,-5.252,-5.2668,-5.2677,-5.2686,-5.2758,-5.2778,-5.2795,0,0,0,0,0,0,-5.217,-5.2201,-5.2182,-5.2287,-5.2321,-5.2349,-5.2404,-5.2382,-5.2428,-5.2419,-5.2405,-5.2414,-5.2508,-5.2523,-5.2467,-5.2633,-5.2572,-5.2585,-5.2621,-5.264,-5.2654,-5.2649,-5.2403,0,0,0,0,0,-5.2197,-5.2256,-5.2279,-5.237,-5.2388,-5.2394,-5.2426,-5.2417,-5.245,-5.2464,-5.2481,-5.2515,-5.2569,-5.2605,-5.2656,-5.2767,-5.2774,-5.2818,-5.2834,-5.2846,-5.2858,-5.2919,-5.2939,-5.2722,-5.2722,-5.2722,0,0,-5.2252,-5.2276,-5.2314,-5.2383,-5.2408,-5.247,-5.2406,-5.2473,-5.2518,-5.2474,-5.256,-5.2574,-5.2611,-5.2712,-5.2758,-5.2727,-5.2919,-5.2858,-5.2868,-5.2873,-5.2931,-5.2951,-5.297,-5.2728,-5.2727,-5.2726,0,0,-5.2385,-5.2409,-5.2488,-5.2515,-5.2554,-5.2558,-5.2577,-5.2609,-5.2617,-5.2704,-5.2673,-5.2726,-5.282,-5.2848,-5.2874,-5.302,-5.2993,-5.3037,-5.3116,-5.3176,-5.3193,-5.3209,-5.3262,-5.3281,-5.3049,-5.3049,-5.3049,0,-5.2448,-5.254,-5.253,-5.2601,-5.2633,-5.2597,-5.2677,-5.2704,-5.2757,-5.278,-5.2746,-5.2864,-5.2886,-5.2994,-5.303,-5.3053,-5.3074,-5.3033,-5.3192,-5.3207,-5.3221,-5.3271,-5.3291,-5.3054,-5.3053,-5.3053,-5.3052,0,-5.2617,-5.2681,-5.274,-5.2795,-5.2833,-5.2908,-5.291,-5.295,-5.2938,-5.2945,-5.3035,-5.306,-5.3117,-5.3142,-5.3129,-5.3249,-5.3229,-5.3194,-5.3132,-5.3247,-5.3294,-5.3313,-5.3061,-5.306,-5.3058,-5.3057,0,0,-5.2791,-5.2842,-5.2863,-5.2889,-5.2931,-5.298,-5.3054,-5.311,-5.3145,-5.3184,-5.3246,-5.3327,-5.3295,-5.3326,-5.3316,-5.3369,-5.3485,-5.3327,-5.3328,-5.3356,-5.362,-5.3647,-5.3669,-5.3467,-5.3471,-5.3474,-5.3617,0,-5.2926,-5.3056,-5.3051,-5.3171,-5.3231,-5.32,-5.3264,-5.3297,-5.3306,-5.3358,-5.3368,-5.3426,-5.3379,-5.3397,-5.3448,-5.346,-5.3538,-5.345,-5.3525,-5.3527,-5.3517,-5.3693,-5.3722,-5.3855,-5.3635,-5.3638,-5.364,0,-5.3101,-5.3148,-5.3276,-5.3311,-5.3336,-5.3394,-5.3446,-5.3496,-5.3533,-5.3536,-5.3572,-5.3555,-5.363,-5.3566,-5.3669,-5.361,-5.364,-5.3651,-5.3656,-5.3662,-5.3591,-5.3706,-5.3898,-5.3918,-5.3669,-5.3667,-5.3665,0,-5.3217,-5.3312,-5.3401,-5.3423,-5.3466,-5.3508,-5.3528,-5.3561,-5.3596,-5.3642,-5.3665,-5.3718,-5.3747,-5.3789,-5.3787,-5.3741,-5.3892,-5.3828,-5.3897,-5.3897,-5.393,-5.3928,-5.413,-5.3949,-5.3949,-5.3948,-5.3948,0,-5.3369,-5.3448,-5.3454,-5.3508,-5.3597,-5.359,-5.3678,-5.3693,-5.3723,-5.3781,-5.3756,-5.381,-5.3804,-5.3858,-5.3857,-5.3944,-5.3956,-5.3961,-5.396,-5.3964,-5.3963,-5.3983,-5.3974,-5.3953,-5.3952,-5.3951,-5.395,0,-5.3512,-5.3519,-5.3614,-5.3648,-5.3659,-5.3723,-5.3751,-5.3804,-5.3811,-5.3884,-5.3901,-5.3913,-5.3976,-5.3979,-5.4051,-5.405,-5.4156,-5.4144,-5.4144,-5.4142,-5.4211,-5.4205,-5.4433,-5.4463,-5.4262,-5.4264,-5.4266,0,-5.3609,-5.367,-5.3711,-5.3749,-5.3772,-5.3832,-5.3868,-5.3864,-5.3903,-5.3951,-5.3998,-5.4059,-5.4107,-5.421,-5.4225,-5.428,-5.427,-5.4346,-5.4278,-5.428,-5.4272,-5.4269,-5.4275,-5.4359,-5.4362,-5.4363,-5.4365,0,-5.3781,-5.3782,-5.3835,-5.3892,-5.3936,-5.398,-5.402,-5.4052,-5.4053,-5.4098,-5.4163,-5.4201,-5.4276,-5.4337,-5.4392,-5.4411,-5.4389,-5.4387,-5.4406,-5.441,-5.4408,-5.4411,-5.4181,-5.4381,-5.4379,-5.4378,-5.4377,-5.4377,-5.3904,-5.3958,-5.3996,-5.4057,-5.4088,-5.4127,-5.4178,-5.4194,-5.4248,-5.431,-5.4304,-5.4377,-5.4414,-5.4485,-5.4509,-5.4566,-5.4539,-5.4567,-5.4574,-5.4581,-5.4589,-5.4399,-5.4575,-5.4575,-5.4574,-5.4574,-5.4574,0,-5.4075,-5.4099,-5.4156,-5.4214,-5.4263,-5.4239,-5.4283,-5.4325,-5.439,-5.4427,-5.4476,-5.4552,-5.4612,-5.4633,-5.4691,-5.4732,-5.4724,-5.4748,-5.4745,-5.475,-5.4608,-5.4586,-5.4754,-5.4754,-5.4754,-5.4754,-5.4754,-5.4754,-5.417,-5.426,-5.4266,-5.437,-5.4393,-5.4465,-5.4493,-5.4529,-5.4558,-5.4645,-5.4695,-5.4709,-5.4739,-5.48,-5.4854,-5.4859,-5.4881,-5.491,-5.4911,-5.4778,-5.476,-5.4742,-5.4722,-5.4915,-5.4915,-5.5048,-5.5049,-5.505]}]]